Temperature
13 12 12 12 12 12 12 12 12 11 11 11 11 11 10 10 10 10 9 9 9 8 8 7 6 6 5 5 5 4 4 3 3 3 3 3 3 3 3 3 3 3 2
12 12 12 12 11 11 11 11 11 11 10 10 10 10 10 9 9 9 8 8 8 7 7 6 6 5 5 4 4 4 3 3 3 3 3 3 3 2 2 2 2 2 2
11 11 11 11 11 10 10 10 10 10 10 9 9 9 9 9 8 8 8 8 7 7 6 5 5 4 4 4 3 3 3 3 2 2 2 2 2 2 2 2 1 1 1
11 10 10 10 10 9 9 9 9 9 9 9 9 9 8 8 8 7 7 7 6 6 5 4 4 3 3 3 3 3 3 2 2 2 2 2 2 2 1 1 1 1 1
10 10 9 9 9 9 8 8 8 8 8 8 8 8 8 7 7 7 6 6 5 5 4 3 3 3 2 2 2 2 2 2 2 2 2 1 1 1 1 1 1 1 1
9 9 9 8 8 8 8 8 8 8 8 7 7 7 7 6 6 6 6 5 5 4 4 3 2 2 2 2 2 2 2 2 2 2 2 1 1 1 1 1 1 1 0
8 8 8 8 7 7 7 7 7 7 7 7 7 6 6 6 5 5 5 4 4 3 3 2 2 2 1 1 2 2 2 2 2 2 1 1 1 1 1 1 0 0 0
8 8 7 7 7 7 7 7 7 6 6 6 6 6 5 5 5 4 4 4 3 3 2 2 2 1 1 1 1 1 1 1 1 1 1 1 1 1 0 0 0 -0 -0
7 7 7 7 7 6 6 6 6 6 6 6 5 5 5 4 4 3 3 3 2 2 2 1 1 1 1 1 1 1 1 1 1 1 1 1 0 0 0 -0 -0 -0 -0
7 6 6 6 6 6 6 6 6 5 5 5 5 4 4 4 3 3 2 2 2 2 2 1 1 1 1 0 0 0 1 1 1 0 0 0 0 0 -0 -0 -0 -1 -1
6 6 6 6 6 5 5 5 5 5 4 4 4 3 3 3 2 2 2 2 2 1 1 1 1 0 0 0 0 0 0 0 0 0 0 0 -0 -0 -0 -1 -1 -1 -1
5 5 5 5 5 5 5 4 4 4 4 3 3 3 3 2 2 2 1 1 1 1 1 1 0 -0 -0 -0 -0 -0 -0 -0 -0 -0 -0 -0 -0 -1 -1 -1 -1 -1 -1
5 5 5 5 5 4 4 4 4 4 3 3 3 3 2 2 2 1 1 1 1 1 0 -0 -0 -0 -1 -1 -1 -1 -1 -1 -1 -0 -0 -1 -1 -1 -1 -1 -1 -1 -1
4 4 4 4 4 4 3 3 3 3 3 3 2 2 2 2 2 1 1 1 0 0 -0 -0 -1 -1 -1 -1 -1 -1 -1 -1 -1 -1 -1 -1 -1 -1 -1 -2 -2 -2 -2
3 3 3 3 3 3 3 3 2 2 2 2 2 2 2 2 1 1 1 1 0 -0 -1 -1 -1 -1 -1 -1 -1 -1 -1 -1 -1 -1 -1 -1 -2 -2 -2 -2 -2 -2 -2
2 2 2 2 2 2 2 2 2 2 2 1 1 1 1 1 1 1 1 0 -0 -1 -1 -1 -1 -1 -1 -1 -1 -1 -2 -2 -2 -2 -2 -2 -2 -2 -2 -3 -3 -3 -3
1 1 2 2 2 1 1 1 1 1 1 1 1 1 1 1 1 0 0 -0 -1 -1 -1 -1 -1 -1 -1 -1 -2 -2 -2 -2 -2 -3 -2 -2 -2 -3 -3 -3 -3 -3 -3
1 1 1 1 1 1 1 1 1 1 1 1 1 0 0 0 0 0 -0 -1 -1 -1 -1 -1 -1 -1 -1 -2 -2 -2 -2 -2 -3 -3 -3 -3 -3 -3 -3 -3 -3 -3 -4
-0 -0 0 0 0 0 0 0 0 0 0 0 0 0 0 -0 -0 -0 -1 -1 -1 -1 -1 -1 -1 -1 -2 -2 -2 -2 -2 -2 -3 -3 -3 -3 -3 -3 -4 -4 -4 -4 -4
-1 -1 -1 -1 -1 -0 -0 -0 -0 -1 -1 -0 -0 -0 -1 -1 -1 -1 -1 -1 -1 -1 -1 -1 -1 -2 -2 -2 -2 -2 -2 -3 -3 -3 -3 -3 -3 -4 -4 -4 -4 -4 -4
-2 -1 -1 -1 -1 -1 -1 -1 -1 -1 -1 -1 -1 -1 -1 -1 -1 -1 -1 -1 -1 -1 -1 -1 -2 -2 -2 -2 -2 -2 -3 -3 -3 -3 -3 -3 -4 -4 -4 -4 -5 -5 -5
-2 -2 -2 -2 -2 -2 -2 -2 -2 -2 -2 -2 -2 -2 -2 -2 -2 -2 -2 -2 -2 -2 -2 -2 -2 -2 -2 -2 -3 -3 -3 -3 -3 -3 -4 -4 -4 -4 -5 -5 -5 -5 -5
-3 -3 -3 -3 -3 -3 -3 -3 -3 -3 -3 -2 -2 -2 -2 -2 -2 -2 -2 -2 -2 -3 -3 -3 -3 -3 -3 -3 -3 -3 -3 -3 -4 -4 -4 -4 -4 -5 -5 -5 -5 -6 -6
-3 -3 -3 -3 -3 -3 -3 -3 -3 -3 -3 -3 -3 -3 -3 -3 -3 -3 -3 -3 -3 -3 -3 -3 -3 -3 -3 -3 -4 -4 -4 -4 -4 -5 -5 -5 -5 -5 -6 -6 -6 -6 -6
-4 -4 -4 -4 -4 -4 -4 -4 -4 -4 -4 -4 -4 -4 -4 -4 -4 -4 -4 -4 -4 -4 -4 -4 -4 -4 -4 -4 -4 -4 -4 -5 -5 -5 -5 -6 -6 -6 -6 -6 -6 -7 -7
-4 -5 -4 -4 -4 -4 -4 -4 -4 -4 -4 -4 -4 -4 -4 -4 -4 -4 -4 -4 -4 -4 -4 -4 -4 -4 -4 -5 -5 -5 -5 -5 -5 -6 -6 -6 -6 -6 -7 -7 -7 -7 -8
Wind_Speed
3 4 5 5 5 6 6 6 7 7 8 8 7 7 6 5 4 4 3 4 3 2 2 2 2 1 1 1 1 1 1 1 3 1 1 1 2 2 3 6 8 8 9
3 4 5 5 6 6 6 7 7 8 7 7 7 7 6 5 5 4 4 4 4 3 2 3 2 1 1 1 1 1 1 1 1 2 2 1 2 1 2 3 5 6 7
3 4 5 5 6 6 7 7 7 8 8 7 7 7 6 5 4 4 4 4 4 4 3 3 2 2 1 1 1 1 1 1 0 2 2 1 1 1 2 2 3 4 5
3 4 5 6 6 7 7 7 7 7 8 7 6 6 6 5 5 4 4 4 4 3 3 3 3 3 2 1 1 0 0 0 1 2 2 2 1 2 2 2 1 2 3
3 4 5 5 6 7 7 7 7 7 7 7 7 6 5 5 4 5 5 5 5 4 3 3 2 3 3 3 1 1 1 1 1 1 2 2 1 1 1 1 1 1 2
4 4 4 5 6 7 7 7 7 7 7 7 7 6 5 4 6 7 6 5 5 5 4 3 2 1 1 1 2 2 3 3 2 2 2 2 2 2 2 1 1 1 1
4 4 4 6 7 7 8 8 8 7 7 7 6 6 5 5 7 7 8 6 5 5 5 4 2 2 3 2 2 3 3 1 2 4 4 4 4 4 4 2 1 1 1
4 4 5 6 6 7 8 8 7 6 6 6 6 7 6 6 8 7 7 6 5 5 5 5 4 3 3 4 3 2 2 2 1 2 3 3 3 4 4 3 3 2 1
4 5 5 6 7 8 9 8 6 6 6 5 5 7 7 6 8 8 7 5 4 5 4 5 5 4 6 6 5 3 1 1 1 3 4 4 4 6 6 4 3 2 0
5 5 5 6 8 9 9 7 6 6 6 7 6 6 7 6 9 10 9 5 5 4 4 4 7 8 8 8 6 5 4 3 1 2 3 3 3 3 4 4 4 3 1
4 3 4 6 7 7 7 6 6 6 7 6 6 6 6 8 9 12 12 6 6 5 5 4 5 10 10 10 8 6 7 5 4 3 2 2 1 1 2 3 4 3 3
3 4 4 5 5 5 7 6 7 7 7 7 6 5 5 6 9 11 14 12 10 6 6 5 6 11 11 11 8 8 10 6 4 3 3 3 3 3 2 3 4 4 3
4 4 3 4 4 5 7 7 7 7 7 6 6 6 5 5 7 14 15 15 15 8 6 9 10 11 11 8 10 10 8 5 4 4 4 4 3 3 3 3 2 2 1
4 3 2 3 4 5 5 6 7 7 7 7 7 7 5 5 6 6 6 7 11 9 7 9 12 12 9 8 7 6 4 5 6 5 4 4 3 3 3 3 3 2 1
3 3 2 3 4 5 6 6 7 7 8 8 7 7 7 7 9 12 9 7 6 6 5 4 4 4 5 5 4 4 4 4 6 4 5 4 4 4 4 3 3 3 3
3 3 3 3 3 4 4 4 8 8 10 12 10 9 8 10 9 12 15 15 14 13 8 5 6 7 7 7 7 6 6 6 6 6 6 6 5 6 5 4 4 4 5
4 4 3 3 3 4 4 4 4 5 9 11 12 13 13 12 13 13 13 14 15 14 9 6 7 7 7 7 7 7 7 7 6 7 7 7 6 6 5 5 5 5 5
5 5 4 4 4 4 4 4 4 4 4 4 8 13 14 14 14 14 14 11 8 10 7 8 8 8 7 8 8 7 7 6 6 7 7 7 7 7 6 6 7 7 6
4 3 3 3 3 4 4 4 4 5 5 4 3 5 10 11 12 13 12 7 7 8 8 8 8 8 8 8 8 8 8 7 7 7 8 8 8 8 8 8 8 11 9
4 6 5 3 3 3 4 4 5 5 5 5 5 4 3 4 4 6 7 7 7 8 8 8 8 8 8 8 8 8 8 8 8 8 8 8 8 8 9 10 8 8 8
4 4 5 4 3 3 3 4 4 4 5 5 5 5 6 5 5 5 5 6 6 7 7 7 7 7 8 7 8 9 9 9 8 9 8 8 8 9 8 8 9 9 8
4 4 3 4 3 3 3 3 3 3 4 4 3 3 6 4 3 4 4 4 4 4 4 5 5 6 7 7 8 8 9 9 9 9 9 8 8 9 8 8 8 8 8
4 4 4 4 3 5 4 3 3 3 3 3 3 3 3 3 3 3 3 3 3 3 3 4 5 5 5 6 7 7 8 8 8 8 9 8 8 8 9 9 10 9 9
4 4 4 4 4 3 3 3 3 3 3 2 2 2 2 2 3 3 3 2 2 3 3 3 4 5 5 5 6 8 9 9 9 9 10 9 9 8 8 9 9 10 9
3 4 4 4 3 3 3 2 2 2 2 2 2 2 2 2 2 2 2 2 2 3 3 3 3 4 5 6 7 8 10 12 11 10 9 7 9 9 8 8 8 8 9
3 4 4 3 3 3 3 2 2 2 2 2 2 2 2 2 2 2 2 2 2 2 3 3 4 5 6 7 8 9 10 11 12 13 10 6 8 8 8 8 9 9 9
Wind_Direction
147 144 140 140 138 138 141 143 141 139 143 145 142 138 137 135 130 128 135 140 142 137 130 133 127 112 108 4 349 316 273 252 238 146 103 100 98 87 66 61 57 52 42
152 147 146 140 138 138 140 141 140 140 140 140 139 138 140 139 139 144 153 149 150 151 142 138 143 131 116 59 33 2 317 297 228 181 138 114 92 97 80 64 49 47 42
149 148 148 149 148 149 146 143 142 140 137 136 140 142 144 146 146 148 151 148 152 155 155 158 159 149 148 108 65 23 337 325 321 148 138 110 87 74 74 60 50 36 37
162 164 171 172 164 157 151 148 147 144 143 145 144 146 149 150 148 146 145 144 144 142 143 149 154 165 174 169 146 352 342 15 81 122 124 110 98 72 85 72 42 28 21
183 186 191 175 159 152 150 148 144 144 146 144 142 144 145 148 157 158 156 157 154 147 139 139 158 173 182 177 172 188 157 140 127 129 133 120 125 118 124 97 84 11 30
203 206 185 168 164 162 158 152 149 147 145 145 151 153 156 167 181 178 167 162 163 165 165 158 154 133 149 145 148 155 170 171 176 165 162 174 178 165 137 128 110 78 309
219 208 186 178 177 174 164 159 162 161 156 157 160 163 171 188 193 190 182 163 168 177 178 175 176 168 119 81 70 57 35 35 189 173 179 191 179 179 157 142 145 153 204
230 217 198 186 185 175 169 173 171 163 167 168 170 175 176 196 201 198 187 158 167 182 185 183 182 181 181 167 140 102 46 16 50 134 173 183 179 164 162 161 157 132 105
241 228 209 193 187 182 185 183 174 169 174 174 175 179 183 201 206 201 180 149 172 190 192 191 191 198 218 200 170 169 167 335 50 136 149 156 161 162 152 128 131 112 147
253 239 214 197 193 195 194 184 173 175 180 175 183 188 189 199 208 205 186 163 180 193 199 209 215 211 221 215 179 180 199 215 177 110 96 93 89 125 152 153 154 149 167
268 242 213 204 203 197 185 176 171 171 171 179 189 195 198 206 213 212 201 178 188 192 201 207 218 223 223 222 200 190 211 198 179 167 152 138 113 109 116 145 156 153 167
268 242 221 208 199 186 176 175 171 171 176 186 192 202 209 212 216 221 218 210 198 193 203 202 211 222 227 228 217 206 220 204 163 170 183 197 199 200 185 170 171 173 181
279 256 232 203 191 180 179 179 177 181 188 194 198 209 214 207 218 224 225 223 216 203 205 211 216 223 226 229 225 220 215 181 169 190 206 212 207 192 162 148 140 150 183
278 267 233 202 193 185 187 186 189 193 197 200 204 212 213 207 210 215 218 226 227 220 207 216 220 223 218 216 225 229 198 183 189 201 207 202 173 167 177 172 171 164 200
282 262 235 213 203 202 203 204 204 207 203 201 205 204 205 220 221 211 203 208 203 201 174 172 185 193 201 198 200 205 198 199 210 194 196 194 193 192 193 177 174 171 193
284 268 242 224 215 212 212 223 223 223 226 226 218 210 218 225 226 219 219 219 216 208 195 192 203 207 211 211 211 211 208 211 210 203 203 205 205 204 201 185 183 192 212
278 272 254 234 224 219 215 218 233 235 235 236 233 231 230 229 230 227 224 221 218 210 209 207 210 211 212 211 212 213 216 213 205 205 210 210 207 205 201 203 202 209 222
283 273 262 247 236 229 225 223 224 228 235 238 236 237 239 237 232 228 224 218 217 212 209 213 215 213 212 213 214 217 219 211 207 210 212 210 206 204 207 210 209 212 220
284 279 269 257 243 237 232 228 228 229 234 239 235 240 239 240 237 232 222 213 211 214 214 216 216 214 213 213 214 214 214 215 212 210 214 212 208 206 213 215 214 223 222
285 281 280 269 254 246 240 235 232 231 233 235 237 234 216 209 218 223 216 211 215 219 217 218 218 216 215 214 213 212 215 217 216 217 217 214 211 209 216 215 214 217 221
288 287 284 281 268 258 251 246 242 237 235 237 240 235 224 216 223 225 222 220 221 222 220 219 218 216 216 214 214 215 216 219 217 216 216 214 210 213 216 216 216 217 220
283 280 275 271 271 268 264 256 252 246 243 244 248 249 248 233 225 231 230 229 228 228 223 220 221 219 215 214 214 216 220 222 219 216 216 214 211 213 212 213 215 215 216
283 286 284 278 274 278 278 263 256 254 251 246 244 238 236 233 234 233 235 233 230 230 224 220 226 227 220 217 215 216 220 223 217 211 212 214 214 213 212 214 213 213 216
275 279 282 285 282 272 270 270 265 263 261 258 253 248 242 239 245 247 242 239 239 236 230 227 232 233 228 224 226 228 231 230 221 216 213 215 215 213 211 214 215 216 216
269 274 275 276 279 279 280 280 278 279 280 277 271 269 265 261 262 265 259 253 253 250 245 237 239 240 240 239 239 238 238 236 231 223 216 218 220 215 211 213 214 214 215
271 272 273 273 274 274 273 275 279 281 280 282 276 267 265 265 269 275 275 267 265 263 260 250 249 249 249 248 248 248 249 248 244 236 223 215 216 218 215 219 215 216 216
Height
1476 1478 1479 1481 1483 1485 1487 1489 1491 1494 1496 1498 1500 1501 1503 1503 1504 1504 1505 1504 1504 1503 1503 1502 1502 1501 1501 1501 1501 1501 1501 1502 1502 1502 1503 1503 1503 1504 1504 1503 1503 1503 1502
1473 1475 1476 1478 1479 1481 1483 1485 1487 1490 1492 1494 1495 1497 1498 1499 1500 1500 1500 1500 1499 1499 1499 1498 1498 1497 1497 1497 1497 1497 1497 1497 1498 1498 1499 1499 1500 1500 1500 1500 1500 1500 1499
1470 1471 1472 1474 1475 1477 1479 1482 1483 1485 1488 1489 1491 1492 1493 1494 1495 1495 1496 1495 1495 1495 1494 1494 1494 1493 1493 1493 1493 1493 1493 1493 1494 1495 1495 1496 1496 1497 1497 1497 1497 1497 1497
1467 1468 1469 1470 1472 1474 1476 1478 1480 1482 1483 1485 1487 1488 1489 1490 1491 1491 1491 1491 1491 1490 1490 1490 1490 1490 1490 1489 1489 1489 1489 1490 1490 1491 1492 1493 1493 1494 1494 1494 1494 1494 1494
1464 1464 1465 1467 1468 1470 1472 1474 1476 1478 1480 1481 1483 1484 1485 1486 1486 1487 1487 1487 1486 1486 1486 1486 1486 1487 1486 1486 1486 1486 1487 1487 1487 1488 1488 1489 1490 1490 1491 1491 1491 1491 1491
1460 1461 1462 1463 1464 1466 1468 1470 1472 1474 1475 1477 1478 1480 1481 1481 1482 1482 1482 1482 1482 1483 1483 1483 1483 1483 1483 1483 1483 1483 1484 1484 1485 1485 1486 1486 1487 1488 1488 1488 1489 1489 1489
1457 1457 1458 1459 1460 1462 1463 1465 1467 1470 1471 1473 1474 1476 1477 1477 1478 1478 1478 1478 1479 1479 1479 1479 1479 1480 1480 1480 1481 1481 1481 1481 1482 1483 1483 1484 1485 1485 1486 1486 1486 1487 1487
1453 1453 1453 1454 1456 1457 1459 1461 1463 1465 1467 1469 1470 1471 1472 1473 1473 1473 1474 1474 1475 1475 1475 1476 1476 1477 1477 1478 1478 1478 1479 1479 1479 1480 1481 1482 1482 1483 1483 1484 1484 1485 1485
1449 1449 1449 1450 1451 1453 1454 1456 1458 1461 1463 1464 1465 1466 1467 1468 1469 1469 1470 1470 1471 1471 1472 1472 1473 1473 1474 1475 1475 1476 1476 1477 1477 1478 1479 1479 1480 1480 1481 1482 1482 1482 1483
1445 1445 1445 1446 1447 1448 1450 1452 1454 1456 1458 1459 1460 1461 1462 1463 1464 1465 1465 1466 1467 1467 1468 1469 1469 1470 1471 1471 1472 1473 1474 1474 1475 1476 1476 1477 1477 1478 1479 1479 1480 1480 1480
1442 1441 1441 1442 1442 1444 1445 1447 1449 1451 1452 1454 1455 1456 1457 1458 1459 1460 1461 1461 1462 1463 1464 1465 1466 1467 1467 1468 1469 1470 1471 1471 1472 1473 1474 1474 1475 1476 1476 1477 1477 1478 1478
1438 1438 1437 1438 1438 1439 1440 1442 1444 1445 1447 1448 1449 1450 1452 1453 1454 1455 1456 1457 1458 1459 1460 1461 1462 1463 1464 1465 1466 1467 1468 1468 1469 1470 1471 1472 1473 1473 1474 1474 1474 1475 1475
1435 1434 1433 1433 1434 1434 1435 1437 1438 1439 1441 1442 1444 1445 1447 1448 1449 1450 1451 1452 1453 1454 1456 1457 1458 1459 1460 1461 1462 1463 1464 1465 1466 1467 1468 1469 1470 1470 1470 1471 1471 1472 1472
1431 1430 1429 1429 1429 1430 1431 1432 1432 1434 1435 1436 1438 1439 1441 1442 1443 1444 1445 1447 1448 1449 1451 1452 1454 1455 1455 1457 1458 1459 1460 1461 1462 1463 1464 1465 1466 1466 1467 1467 1468 1468 1468
1427 1426 1425 1425 1425 1425 1426 1427 1427 1429 1430 1431 1432 1434 1435 1436 1438 1439 1440 1441 1443 1445 1446 1447 1448 1450 1451 1452 1453 1455 1456 1457 1458 1459 1460 1461 1461 1462 1463 1463 1463 1464 1464
1423 1422 1421 1421 1421 1421 1421 1421 1422 1423 1424 1425 1427 1428 1429 1431 1432 1433 1435 1436 1438 1439 1440 1441 1443 1444 1445 1447 1448 1450 1451 1452 1453 1454 1455 1455 1456 1457 1458 1458 1458 1459 1459
1419 1418 1417 1416 1416 1416 1416 1417 1417 1418 1419 1420 1421 1422 1424 1425 1427 1428 1429 1431 1432 1433 1434 1435 1437 1438 1440 1441 1443 1444 1445 1446 1447 1448 1449 1450 1451 1451 1452 1452 1453 1453 1453
1415 1414 1413 1412 1412 1412 1412 1412 1412 1413 1414 1415 1416 1417 1418 1420 1421 1423 1424 1426 1426 1427 1428 1430 1431 1432 1434 1435 1436 1437 1439 1440 1441 1441 1442 1443 1444 1445 1445 1446 1447 1447 1448
1410 1409 1408 1408 1407 1407 1407 1408 1408 1408 1409 1410 1411 1412 1413 1414 1415 1417 1418 1419 1420 1421 1423 1424 1425 1426 1427 1429 1430 1431 1432 1433 1433 1434 1435 1436 1437 1438 1438 1439 1440 1441 1441
1406 1405 1404 1403 1403 1403 1403 1403 1403 1404 1404 1405 1406 1407 1408 1409 1409 1411 1412 1413 1414 1415 1416 1418 1419 1420 1421 1422 1423 1424 1424 1425 1426 1427 1428 1429 1430 1430 1431 1432 1433 1433 1434
1402 1400 1400 1399 1398 1398 1398 1398 1398 1399 1399 1400 1401 1402 1402 1403 1404 1405 1406 1407 1408 1409 1410 1411 1412 1413 1414 1415 1416 1416 1417 1418 1419 1419 1420 1421 1422 1423 1424 1424 1425 1426 1427
1398 1397 1395 1394 1394 1393 1393 1393 1393 1394 1394 1395 1396 1397 1397 1398 1398 1399 1400 1400 1401 1402 1403 1404 1405 1406 1407 1408 1408 1409 1409 1410 1411 1412 1413 1414 1415 1415 1416 1417 1418 1419 1419
1394 1393 1392 1391 1390 1389 1389 1389 1389 1389 1390 1390 1391 1391 1392 1392 1393 1393 1394 1394 1395 1396 1396 1397 1398 1399 1400 1400 1401 1402 1402 1403 1404 1405 1405 1406 1407 1408 1408 1409 1410 1411 1412
1390 1389 1388 1387 1386 1385 1385 1385 1385 1385 1385 1385 1386 1386 1386 1387 1387 1388 1388 1388 1389 1389 1390 1390 1391 1391 1392 1393 1393 1394 1394 1395 1396 1396 1397 1398 1399 1400 1401 1401 1402 1403 1404
1386 1385 1384 1383 1382 1382 1381 1381 1381 1381 1381 1381 1381 1381 1382 1382 1382 1382 1382 1383 1383 1383 1383 1384 1384 1384 1385 1385 1386 1386 1387 1387 1388 1389 1389 1390 1391 1392 1393 1394 1395 1396 1397
1382 1381 1380 1379 1378 1378 1378 1377 1377 1377 1377 1377 1377 1377 1377 1377 1377 1377 1377 1377 1377 1377 1377 1378 1378 1378 1378 1378 1379 1379 1379 1380 1381 1381 1382 1382 1383 1384 1385 1386 1387 1388 1389